Flag for France Weather past 2 weeks in Strasbourg, France

Now
70 °F

Clear.


Feels Like: 70 °F
Forecast: 60 / 80 °F
Wind: 6 mph from South

Location: Strasbourg Airport

Current Time: Jul 26, 2014 at 6:20:53 PM

Latest Report: Jul 26, 2014 at 6:00 PM


Visibility: N/A

Pressure: 29.95 "Hg

Humidity: 78%

Dew point: 63 °F

Location of StrasbourgLocation

Historic Weather in Strasbourg — Graph

°F

Strasbourg temperature yesterday

Maximum temperature yesterday: 81 °F (at 2:30 PM)
Minimum temperature yesterday: 59 °F (at 5:00 AM)
Average temperature yesterday: 69 °F

Past Weeks' High & Low Weather Summary

 TemperatureHumidityPressure
High93 °F (Jul 19, 5:30 PM)100% (Jul 12, 6:00 AM)30.18 "Hg (Jul 12, 6:00 AM)
Low32 °F (Jul 26, 8:30 AM)29% (Jul 18, 4:00 PM)29.80 "Hg (Jul 19, 11:30 PM)
Average71 °F73%29.97 "Hg
* Reported Jul 11 5:00 PM — Jul 26 5:00 PM, Strasbourg, Weather by CustomWeather, © 2014

Note: Actual official high and low records may vary slightly from our data, if they occured in-between our weather recording intervals... More about our weather records

Advertising

Strasbourg weather history for previous 24 hours

 ConditionsComfort  
Time TempWeatherWind HumidityBarometerVisibility
5:00 PM
Jul 26
66 °FPartly sunny.7 mph88%29.95 "HgN/A
4:30 PM64 °FLight rain. Mostly cloudy.6 mph94%29.98 "HgN/A
4:00 PM64 °FRain. Fog.7 mph88%29.98 "Hg3 mi
3:30 PM64 °FLight rain. Cloudy.9 mph94%29.98 "Hg4 mi
3:00 PM68 °FMostly cloudy.9 mph78%29.98 "HgN/A
2:30 PM70 °FMore clouds than sun.8 mph73%29.95 "HgN/A
2:00 PM70 °FMild.5 mph73%29.95 "HgN/A
1:30 PM70 °FClear.6 mph78%29.95 "HgN/A
1:00 PM70 °FPassing clouds.5 mph78%29.95 "HgN/A
12:30 PM70 °FClear.6 mph73%29.95 "HgN/A
12:00 PM68 °FPartly sunny.7 mph78%29.95 "HgN/A
11:30 AM68 °FCloudy.6 mph78%29.95 "HgN/A
11:00 AM68 °FClear.6 mph78%29.95 "HgN/A
10:30 AM68 °FMostly cloudy.6 mph78%29.95 "HgN/A
10:00 AM68 °FMostly cloudy.5 mph78%29.95 "HgN/A
9:30 AM68 °FBroken clouds.7 mph83%29.95 "HgN/A
9:00 AM66 °FMild.3 mph88%29.95 "HgN/A
8:30 AM32 °FPartly sunny.5 mphN/AN/AN/A
8:00 AM64 °FThundershowers. Partly sunny.5 mph94%29.92 "HgN/A
7:30 AM64 °FMild.3 mph94%29.92 "HgN/A
7:00 AM63 °FClear.2 mph100%29.92 "HgN/A
6:30 AM63 °FClear.1 mph94%29.89 "HgN/A
6:00 AM63 °FClear.No wind94%29.89 "HgN/A
5:30 AM63 °FClear.2 mph94%29.89 "HgN/A
5:00 AM63 °FClear.3 mph94%29.89 "HgN/A
4:30 AM63 °FClear.2 mph94%29.89 "HgN/A
4:00 AM63 °FClear.1 mph94%29.89 "HgN/A
3:30 AM63 °FClear.1 mph94%29.89 "HgN/A
3:00 AM63 °FClear.No wind94%29.89 "HgN/A
2:30 AM63 °FClear.2 mph94%29.89 "HgN/A
2:00 AM64 °FClear.1 mph88%29.89 "HgN/A
1:30 AM64 °FClear.3 mph94%29.89 "HgN/A
1:00 AM64 °FClear.1 mph88%29.89 "HgN/A
12:30 AM64 °FClear.3 mph88%29.89 "HgN/A
12:00 AM64 °FClear.No wind88%29.89 "HgN/A
11:30 PM
Jul 25
64 °FClear.2 mph94%29.89 "HgN/A
11:00 PM66 °FClear.2 mph88%29.86 "HgN/A
10:30 PM68 °FClear.1 mph83%29.86 "HgN/A
10:00 PM68 °FLight rain. Clear.2 mph83%29.89 "HgN/A
9:30 PM70 °FClear.6 mph83%29.89 "HgN/A
9:00 PM70 °FClear.3 mph78%29.89 "HgN/A
8:30 PM72 °FClear.6 mph73%29.86 "HgN/A
8:00 PM73 °FClear.2 mph74%29.86 "HgN/A
7:30 PM73 °FClear.3 mph69%29.86 "HgN/A
7:00 PM73 °FClear.3 mph65%29.86 "HgN/A
6:30 PM73 °FClear.3 mph61%29.86 "HgN/A
6:00 PM73 °FMild.7 mph65%29.86 "HgN/A
Weather by CustomWeather, © 2014

See weather overviewHow to use our weather pages